Regional Weather Roundup
Issued by NWS Cleveland, OH

Home | Current Version | Previous Version | Text Only | Print | Product List | Glossary On
Versions: 1 2 3 4 5 6 7 8 9 10 11 12 13 14 15 16 17 18 19 20 21 22 23 24 25 26 27 28 29 30 31 32 33 34 35 36 37 38 39 40 41 42 43 44 45 46 47 48 49 50
000
ASUS41 KCLE 260510
RWRCLE
OHIO REGIONAL WEATHER ROUNDUP
NATIONAL WEATHER SERVICE CLEVELAND, OH
100 AM EDT TUE MAY 26 2015

NOTE: "FAIR" INDICATES FEW OR NO CLOUDS BELOW 12,000 FEET WITH NO
SIGNIFICANT WEATHER AND/OR OBSTRUCTIONS TO VISIBILITY.

OHZ001>008-015>018-024>027-034-035-043-044-260600-
   NORTHWEST OHIO

CITY           SKY/WX    TMP DP  RH WIND       PRES   REMARKS
DEFIANCE       CLOUDY    69  62  78 S7        30.06R
FINDLAY        MOCLDY    70  62  76 S12       30.08R
TOLEDO EXPRESS CLOUDY    70  62  76 SW8       30.06R
TOLEDO EXEC    CLOUDY    71  61  70 SW12      30.07R
LIMA           MOCLDY    68  62  81 S8        30.10R
$$

OHZ009>014-019>023-028>033-038-089-260600-
   NORTHEAST OHIO

CITY           SKY/WX    TMP DP  RH WIND       PRES   REMARKS
CLE-HOPKINS    MOCLDY    71  60  68 S10       30.11R
CLE-LAKEFRONT  PTCLDY    75  60  59 S14       30.08R
CUY CO. ARPT   NOT AVBL
LORAIN-ELYRIA  CLEAR     70  61  73 SW10      30.09S
ASHTABULA      CLEAR     71  61  70 SW10      30.11R
AKRON-CANTON   PTCLDY    69  59  70 SW7       30.14R
WOOSTER        PTCLDY    68  59  73 S3        30.13R
MANSFIELD      CLEAR     67  61  81 S8        30.13R
YOUNGSTOWN     MOCLDY    72  60  66 SW9       30.13R
$$

OHZ042-051>053-060>062-070>072-077>081-260600-
  SOUTHWEST OHIO

CITY           SKY/WX    TMP DP  RH WIND       PRES   REMARKS
CINC-COVINGTON MOCLDY    68  63  84 S6        30.12F
CINC-LUNKEN    PTCLDY    69  64  84 S7        30.12F
HAMILTON       PTCLDY    71  64  78 S6        30.11F
DAYTON         MOCLDY    70  64  81 S8        30.11F
WRIGHT-PAT AFB MOCLDY    69  64  85 S9        30.10F
DAYTON GENERAL MOCLDY    68  64  87 S8        30.10F
WILMINGTON     PTCLDY    65  62  90 SW7       30.13S
$$

OHZ036-037-039>041-045>050-054>059-063>069-073>076-082>088-260600-
  CENTRAL AND SOUTHEAST OHIO

CITY           SKY/WX    TMP DP  RH WIND       PRES   REMARKS
COLUMBUS       CLOUDY    72  61  68 S6        30.12R
OSU AIRPORT    MOCLDY    71  61  70 S7        30.12S
BOLTON FIELD   NOT AVBL
RICKENBACK AFB CLOUDY    69  62  78 S7        30.13S
NEWARK         LGT RAIN  69  62  78 S8        30.14R
MARION         MOCLDY    68  61  78 SW7       30.12R
LANCASTER      LGT RAIN  68  64  87 SE6       30.15R
ZANESVILLE     CLOUDY    68  61  78 NW3       30.13R
NEW PHILLY     MOCLDY    71  62  73 CALM      30.14R
$$



USA.gov is the U.S. government's official web portal to all federal, state and local government web resources and services.